DL3CSM-13 Weather Reports


time (UTC)temp
C
wind
direction
speed
KPH
gust
KPH
rain 1hr
cm
rain 24hr
cm
rain mn
cm
humidity
%
barometer
mb
20260507061511 10 225 9.7 19.3 0.00 0.00 0.89 76 1012.9
20260507060011 10 219 6.4 14.5 0.00 0.00 0.89 78 1012.8
20260507051511 9 227 6.4 9.7 0.00 0.00 0.89 79 1012.6
20260507043011 8 220 3.2 6.4 0.00 0.00 0.89 82 1011.9
20260507040011 7 208 1.6 3.2 0.00 0.00 0.89 85 1011.9
20260507030011 7 215 1.6 3.2 0.00 0.00 0.89 82 1011.6
20260507024511 7 226 3.2 4.8 0.00 0.00 0.89 82 1011.4
20260507023011 8 213 1.6 4.8 0.00 0.00 0.89 81 1011.3
20260507021511 8 224 3.2 4.8 0.00 0.00 0.89 81 1011.4
20260507000011 9 229 6.4 8.0 0.00 0.00 0.89 78 1011.0
20260506233011 10 228 4.8 8.0 0.00 0.00 0.89 78 1010.8
20260506230011 10 223 4.8 8.0 0.00 0.00 0.89 77 1010.9
20260506224511 10 228 6.4 11.3 0.00 0.00 0.89 77 1010.8
20260506190011 11 219 9.7 17.7 0.00 0.89 0.89 73 1009.0
20260506174511 12 228 16.1 22.5 0.00 0.89 0.89 76 1007.8
20260506151511 12 186 1.6 3.2 0.51 0.51 0.53 82 1006.7
20260506150011 12 220 8.0 14.5 0.38 0.38 0.41 77 1006.4
20260506144511 16 222 11.3 17.7 0.23 0.23 0.25 72 1005.9
20260506143011 18 95 0.0 3.2 0.00 0.00 0.03 57 1005.0
20260506140011 19 0 0.0 0.0 0.00 0.00 0.03 50 1004.7
20260506134511 20 13 1.6 6.4 0.00 0.00 0.03 50 1004.7
20260506133011 20 8 0.0 3.2 0.00 0.00 0.03 50 1004.7
20260506131511 20 22 1.6 4.8 0.00 0.00 0.03 51 1004.9
20260506130011 19 1 0.0 6.4 0.00 0.00 0.03 52 1005.2
20260506123011 20 6 3.2 8.0 0.00 0.00 0.03 50 1005.3
20260506121511 20 340 1.6 4.8 0.00 0.00 0.03 51 1005.7
20260506114511 18 10 0.0 3.2 0.00 0.00 0.03 53 1005.8
20260506113011 18 337 0.0 3.2 0.00 0.00 0.03 52 1006.0
20260506111511 18 65 1.6 4.8 0.00 0.00 0.03 53 1006.1
20260506104511 18 9 0.0 4.8 0.00 0.00 0.03 54 1006.9
20260506103011 18 100 0.0 4.8 0.00 0.00 0.03 54 1006.9
20260506101511 18 73 0.0 3.2 0.00 0.00 0.03 55 1006.9
20260506100011 18 72 0.0 1.6 0.00 0.00 0.03 55 1007.0
20260506094511 18 35 0.0 0.0 0.00 0.00 0.03 56 1007.1
20260506093011 17 43 0.0 1.6 0.00 0.00 0.03 58 1007.1
20260506084511 17 11 0.0 3.2 0.00 0.00 0.03 59 1007.0
20260506083011 16 0 0.0 0.0 0.00 0.00 0.03 59 1007.2
20260506081511 16 170 0.0 4.8 0.00 0.00 0.03 59 1007.3